Location: Newark
(7.1028°S, 35.3258°W)
Time: 10:45:43
(UTC+00:00)

X-37B - Visible Passes

Search period start: 27 February 2021 00:00
Search period end: 09 March 2021 00:00
Orbit: 383 x 391 km, 45.0° (Epoch: 10 February)

Date Brightness Start Highest point End Pass type
(mag) Time Alt. Az. Time Alt. Az. Time Alt. Az.
01 Mar 3.0 22:16:57 10° SSW 22:18:06 20° SSW 22:18:06 20° SSW visible
02 Mar 2.2 21:19:17 10° S 21:21:47 20° SE 21:23:02 17° ESE visible
03 Mar 1.6 21:56:55 10° WSW 21:59:57 40° NW 22:00:25 38° NNW visible
04 Mar 0.7 20:58:29 10° SW 21:01:39 60° SE 21:04:48 10° NE visible
05 Mar 3.5 21:37:53 10° W 21:39:46 15° NW 21:41:39 10° NNW visible
